Showing default

GONETS D1 9, 27060

Orbit data source: Space-Track

GONETS D1 9, 27060 is a payload satellite owned by Gonets (CIS) in LEO that was launched on Fri, 28 Dec 2001 UTC via a TSIKLON-3 launch vehicle from the Plesetsk Missile And Space Complex (PKMTR). Payload-class satellites include a variety of spacecraft equipped with specific instruments for various scientific and technological missions. These include communications satellites like Starlink; space stations such as the ISS; scientific satellites like the Hubble; Earth observation satellites from companies like Planet Labs, Umbra, and HawkEye 360; GPS; miniature CubeSats for education and research; and military/defense satellites.

Loading next visibility...
Identifier
27060, 2001-058F
Orbit
LEO
Country
Flag of CISCIS
Related business
Manufacturer
NPO PM
Mission
Non-operational Civil Communications
Bus & Motor
STRELA-3, Unknown motor
Mass
225 kg wet, 225 kg dry
Launch date (UTC)
2001-12-28 (24 years ago)
Launch vehicle
TSIKLON-3
Launch site
Plesetsk Missile And Space Complex (PKMTR)
Object type
Payload
Rocket body
Debris
Shape & HBR
Cyl + 1 Ant, 3.5 m
Radar Cross Section
1.798 m², Medium (>0.1 m² and < 1m²)

Expand to show TLE details & history
Last TLE update: 20 hours ago

TLE from 20 hours ago
0 GONETS D1 9
1 27060U 01058F   26037.12053781  .00000022  00000-0  62753-4 0  9995
2 27060  82.5389 280.2105 0007460 242.2418 117.7918 12.63059854111280
Epoch: 2026-02-06T02:53Z
TLE epoch observation values (Epoch: 2026-02-06T02:53:34.466Z)
Latitude
0.00003°
Longitude
100.55392°
Altitude
1,415.783 km
Speed
7.151 km/s
True Right ascension
18h 40m 50s
True Declination
0° 00' 00"
Sunlit
Object was in daylight at epoch
Visualization orbit readout
Latitude
Unknown
Longitude
Unknown
Altitude
Unknown
Speed
Unknown
Apparent Right ascension
Unknown
Apparent Declination
Unknown
Sunlit
N/A
Visualization observer readout
Local Sidereal Time
00:47:22
Azimuth
Unknown
Elevation
Unknown
Doppler factor
Unknown
Orbital elements
Apogee altitude
1,413.47 km
Perigee altitude
1,401.853 km
Semi-major axis
7,785.798 km
Eccentricity
0.00075
Inclination
82.5389°
RAAN
280.2105°
Arg. of periapsis
242.2418°
True anomaly
117.86739°
Mean anomaly
117.7918°
Eccentric anomaly
117.8296°
Mean motion
3.15928 °/min
Orbital period
113.95 mins
BSTAR
0.000062753
Loading maneuver chart data...
Computing Atmospheric mass density...
Loading historical data...
Loading historical data...
Loading historical data...
Loading historical data...
Loading historical data...
Loading historical data...
Loading historical data...

Documentation

Showing up to 5 results
|